INTELSAT 4A-F6 1 10778U 78035A 21066.11939309 .00000102 00000-0 00000+0 0 9998 2 10778 12.3697 327.5022 0003898 295.6703 325.3169 1.00334046102917 ATLAS CENTAUR R/B 1 10779U 78035B 21065.52733067 .00000008 00000-0 69944-3 0 9997 2 10779 21.8808 317.7916 7176119 132.3754 60.2960 2.22655056348904